Find Starlink 11344

NORAD ID: 61688 Int'l Des: 2024-195 Owner: SPXS Country: US Constellation: starlink operational
LEOCIRCULAR

Live-Position

3D-Globus wird geladen...

Über Starlink 11344

Beschreibung wird geladen...

Nächste Überflüge

Passes for default location (London). Set your location on the main map for personalized predictions.

Höhenverlauf

Loading altitude history...

Zweizeiliger Elementsatz

1 61688U 24195B 26122.19764694 -.00003448 00000-0 -23656-4 0 9996
2 61688 53.1593 122.7797 0000911 85.5361 274.5761 15.69675325 87434
Epoch: 2. Mai 2026 • Age: 10 hours

Aktueller Status

Höhe 376.4 km
Geschwindigkeit 7.68 km/s
Subsatellitenpunkt -47.08°S, 20.56°W
Startdatum 30. Okt. 2024
Alter 1.5 years
Typ internet

Technische Details

Klassifizierung Payload
Masse 960.00 kg
Trockenmasse 910.00 kg
Gesamtmasse 960.00 kg
Länge 0.30 m
Durchmesser 4.10 m
Spannweite 29.00 m
Form Box + pan
Hersteller SPXS
Bus-Typ Starlink V2MD
Phasenstatus In Orbit
Besitzer/Staat SPXS/US

Most Searched